| time (UTC) | temp F | wind direction | speed MPH | gust MPH | rain 1hr in | rain 24hr in | rain mn in | humidity % | barometer mb |
| 20260506085814 | 77 | 92 | 0.0 | 9.0 | 0.00 | 0.00 | 0.00 | 4 | 1007.4 |
| 20260506084830 | 77 | 203 | 0.0 | 9.0 | 0.00 | 0.00 | 0.00 | 4 | 1007.3 |
| 20260506083817 | 77 | 90 | 0.0 | 5.0 | 0.00 | 0.00 | 0.00 | 4 | 1007.4 |
| 20260506082827 | 77 | 96 | 0.0 | 5.0 | 0.00 | 0.00 | 0.00 | 5 | 1007.4 |
| 20260506081758 | 77 | 77 | 0.0 | 2.0 | 0.00 | 0.00 | 0.00 | 5 | 1007.5 |
| 20260506080823 | 78 | 91 | 0.0 | 6.0 | 0.00 | 0.00 | 0.00 | 6 | 1007.6 |
| 20260506072747 | 78 | 92 | 0.0 | 6.0 | 0.00 | 0.00 | 0.00 | 7 | 1008.1 |
| 20260506071722 | 78 | 108 | 0.0 | 6.0 | 0.00 | 0.00 | 0.00 | 7 | 1008.3 |
| 20260506060344 | 78 | 103 | 0.0 | 6.0 | 0.00 | 0.00 | 0.00 | 12 | 1008.5 |
| 20260506051205 | 79 | 117 | 1.0 | 10.0 | 0.00 | 0.00 | 0.00 | 19 | 1008.3 |
| 20260506050201 | 79 | 115 | 2.0 | 9.0 | 0.00 | 0.00 | 0.00 | 20 | 1008.4 |
| 20260506044202 | 79 | 146 | 1.0 | 7.0 | 0.00 | 0.00 | 0.00 | 23 | 1008.4 |
| 20260506043129 | 79 | 180 | 0.0 | 5.0 | 0.00 | 0.00 | 0.00 | 24 | 1008.3 |
| 20260506042144 | 79 | 153 | 1.0 | 8.0 | 0.00 | 0.00 | 0.00 | 25 | 1008.4 |
| 20260506041128 | 79 | 98 | 0.0 | 8.0 | 0.00 | 0.00 | 0.00 | 27 | 1008.4 |
| 20260506040111 | 79 | 96 | 0.0 | 7.0 | 0.00 | 0.00 | 0.00 | 28 | 1008.3 |
| 20260506035105 | 79 | 97 | 1.0 | 11.0 | 0.00 | 0.00 | 0.00 | 29 | 1008.1 |
| 20260506034127 | 79 | 90 | 1.0 | 11.0 | 0.00 | 0.00 | 0.00 | 30 | 1008.0 |
| 20260506033128 | 79 | 112 | 1.0 | 6.0 | 0.00 | 0.00 | 0.00 | 32 | 1008.0 |
| 20260506032107 | 80 | 69 | 0.0 | 7.0 | 0.00 | 0.00 | 0.00 | 34 | 1008.0 |
| 20260506031042 | 80 | 182 | 0.0 | 2.0 | 0.00 | 0.00 | 0.00 | 36 | 1008.0 |
| 20260506030041 | 80 | 107 | 0.0 | 2.0 | 0.00 | 0.00 | 0.00 | 37 | 1007.8 |
| 20260506023935 | 80 | 108 | 0.0 | 1.0 | 0.00 | 0.00 | 0.00 | 41 | 1007.5 |
| 20260506022916 | 80 | 108 | 1.0 | 4.0 | 0.00 | 0.00 | 0.00 | 42 | 1007.4 |
| 20260506021853 | 80 | 80 | 0.0 | 4.0 | 0.00 | 0.00 | 0.00 | 43 | 1007.1 |
| 20260506020820 | 80 | 81 | 1.0 | 6.0 | 0.00 | 0.00 | 0.00 | 44 | 1007.0 |
| 20260506014735 | 80 | 159 | 1.0 | 7.0 | 0.00 | 0.00 | 0.00 | 45 | 1006.7 |
| 20260506013717 | 81 | 104 | 1.0 | 7.0 | 0.00 | 0.00 | 0.00 | 46 | 1006.4 |
| 20260506012719 | 81 | 103 | 0.0 | 2.0 | 0.00 | 0.00 | 0.00 | 47 | 1006.4 |
| 20260506011712 | 81 | 169 | 1.0 | 8.0 | 0.00 | 0.00 | 0.00 | 48 | 1006.2 |
| 20260506010711 | 81 | 138 | 1.0 | 8.0 | 0.00 | 0.00 | 0.00 | 49 | 1006.1 |
| 20260506005713 | 82 | 170 | 1.0 | 7.0 | 0.00 | 0.00 | 0.00 | 50 | 1006.0 |
| 20260506004705 | 82 | 96 | 0.0 | 6.0 | 0.00 | 0.00 | 0.00 | 52 | 1005.9 |
| 20260506003644 | 82 | 89 | 0.0 | 8.0 | 0.00 | 0.00 | 0.00 | 53 | 1005.9 |
| 20260506002631 | 82 | 97 | 0.0 | 4.0 | 0.00 | 0.00 | 0.00 | 55 | 1005.9 |
| 20260506001638 | 82 | 113 | 0.0 | 3.0 | 0.00 | 0.00 | 0.00 | 56 | 1005.9 |
| 20260506000604 | 82 | 121 | 0.0 | 12.0 | 0.00 | 0.00 | 0.00 | 57 | 1006.0 |
| 20260505234444 | 83 | 74 | 0.0 | 6.0 | 0.00 | 0.00 | 0.00 | 57 | 1005.9 |
| 20260505233507 | 83 | 93 | 0.0 | 8.0 | 0.00 | 0.00 | 0.00 | 58 | 1005.8 |
| 20260505232459 | 83 | 86 | 1.0 | 8.0 | 0.00 | 0.00 | 0.00 | 58 | 1005.7 |
| 20260505231505 | 83 | 250 | 1.0 | 8.0 | 0.00 | 0.00 | 0.00 | 59 | 1005.7 |
| 20260505230522 | 84 | 90 | 1.0 | 8.0 | 0.00 | 0.00 | 0.00 | 60 | 1005.8 |
| 20260505225541 | 84 | 91 | 0.0 | 4.0 | 0.00 | 0.00 | 0.00 | 58 | 1005.8 |
| 20260505221138 | 85 | 88 | 2.0 | 8.0 | 0.00 | 0.00 | 0.00 | 59 | 1005.7 |
| 20260505220200 | 85 | 61 | 0.0 | 6.0 | 0.00 | 0.00 | 0.00 | 57 | 1005.7 |
| 20260505215222 | 85 | 244 | 1.0 | 7.0 | 0.00 | 0.00 | 0.00 | 59 | 1005.9 |
| 20260505213118 | 85 | 100 | 1.0 | 8.0 | 0.00 | 0.00 | 0.00 | 60 | 1006.3 |
| 20260505205829 | 85 | 91 | 1.0 | 8.0 | 0.00 | 0.00 | 0.00 | 62 | 1006.7 |
| 20260505204759 | 85 | 55 | 2.0 | 8.0 | 0.00 | 0.00 | 0.00 | 63 | 1006.7 |
| 20260505203807 | 86 | 134 | 1.0 | 8.0 | 0.00 | 0.00 | 0.00 | 62 | 1007.0 |
| 20260505202756 | 85 | 151 | 1.0 | 8.0 | 0.00 | 0.00 | 0.00 | 60 | 1007.0 |
| 20260505200658 | 85 | 71 | 1.0 | 11.0 | 0.00 | 0.00 | 0.00 | 62 | 1007.2 |
| 20260505194535 | 85 | 147 | 1.0 | 8.0 | 0.00 | 0.00 | 0.00 | 59 | 1007.5 |
| 20260505192328 | 83 | 78 | 1.0 | 7.0 | 0.00 | 0.00 | 0.00 | 54 | 1007.7 |
| 20260505191314 | 83 | 92 | 1.0 | 7.0 | 0.00 | 0.00 | 0.00 | 53 | 1007.8 |
| 20260505190339 | 83 | 73 | 0.0 | 7.0 | 0.00 | 0.00 | 0.00 | 49 | 1007.9 |
| 20260505185320 | 82 | 98 | 1.0 | 7.0 | 0.00 | 0.00 | 0.00 | 51 | 1008.1 |
| 20260505184343 | 82 | 165 | 0.0 | 3.0 | 0.00 | 0.00 | 0.00 | 41 | 1008.0 |
| 20260505182244 | 81 | 160 | 0.0 | 4.0 | 0.00 | 0.00 | 0.00 | 36 | 1008.3 |
| 20260505181239 | 81 | 80 | 0.0 | 5.0 | 0.00 | 0.00 | 0.00 | 35 | 1008.3 |
| 20260505180238 | 80 | 309 | 0.0 | 9.0 | 0.00 | 0.00 | 0.00 | 32 | 1008.4 |
| 20260505175236 | 80 | 248 | 1.0 | 9.0 | 0.00 | 0.00 | 0.00 | 30 | 1008.4 |
| 20260505174224 | 80 | 92 | 0.0 | 4.0 | 0.00 | 0.00 | 0.00 | 29 | 1008.5 |
| 20260505173215 | 80 | 92 | 1.0 | 4.0 | 0.00 | 0.00 | 0.00 | 29 | 1008.7 |
| 20260505172146 | 80 | 117 | 1.0 | 4.0 | 0.00 | 0.00 | 0.00 | 31 | 1008.8 |
| 20260505171156 | 79 | 236 | 1.0 | 3.0 | 0.00 | 0.00 | 0.00 | 27 | 1008.8 |
| 20260505170152 | 79 | 227 | 0.0 | 6.0 | 0.00 | 0.00 | 0.00 | 23 | 1008.8 |
| 20260505165205 | 79 | 84 | 0.0 | 3.0 | 0.00 | 0.00 | 0.00 | 24 | 1008.7 |
| 20260505163044 | 78 | 86 | 0.0 | 6.0 | 0.00 | 0.00 | 0.00 | 17 | 1008.9 |
| 20260505160943 | 77 | 253 | 0.0 | 4.0 | 0.00 | 0.00 | 0.00 | 18 | 1008.8 |
| 20260505151657 | 77 | 163 | 1.0 | 8.0 | 0.00 | 0.00 | 0.00 | 22 | 1008.6 |
| 20260505150716 | 77 | 127 | 1.0 | 6.0 | 0.00 | 0.00 | 0.00 | 20 | 1008.5 |
| 20260505140549 | 75 | 92 | 1.0 | 8.0 | 0.00 | 0.00 | 0.00 | 6 | 1008.3 |
| 20260505124446 | 73 | 153 | 0.0 | 7.0 | 0.00 | 0.00 | 0.00 | 1 | 1007.9 |
| 20260505123448 | 73 | 105 | 1.0 | 7.0 | 0.00 | 0.00 | 0.00 | 1 | 1007.6 |
| 20260505122437 | 73 | 67 | 0.0 | 6.0 | 0.00 | 0.00 | 0.00 | 1 | 1008.0 |
| 20260505121421 | 73 | 82 | 0.0 | 3.0 | 0.00 | 0.00 | 0.00 | 1 | 1008.1 |
| 20260505120409 | 72 | 87 | 0.0 | 0.0 | 0.00 | 0.00 | 0.00 | 1 | 1008.0 |
| 20260505115418 | 72 | 84 | 0.0 | 3.0 | 0.00 | 0.00 | 0.00 | 2 | 1007.9 |
| 20260505114428 | 72 | 119 | 1.0 | 6.0 | 0.00 | 0.00 | 0.00 | 3 | 1007.4 |
| 20260505113424 | 72 | 117 | 0.0 | 6.0 | 0.00 | 0.00 | 0.00 | 3 | 1007.8 |
| 20260505112351 | 72 | 95 | 0.0 | 2.0 | 0.00 | 0.00 | 0.00 | 4 | 1007.8 |
| 20260505111329 | 72 | 306 | 0.0 | 4.0 | 0.00 | 0.00 | 0.00 | 4 | 1007.8 |
| 20260505110305 | 72 | 94 | 0.0 | 6.0 | 0.00 | 0.00 | 0.00 | 5 | 1007.7 |
| 20260505100057 | 72 | 163 | 0.0 | 2.0 | 0.00 | 0.00 | 0.00 | 8 | 1007.9 |
| 20260505095056 | 72 | 109 | 0.0 | 3.0 | 0.00 | 0.00 | 0.00 | 9 | 1008.0 |
| 20260505094040 | 72 | 104 | 0.0 | 2.0 | 0.00 | 0.00 | 0.00 | 10 | 1007.9 |
| 20260505093103 | 72 | 105 | 0.0 | 1.0 | 0.00 | 0.00 | 0.00 | 11 | 1007.9 |
| 20260505092048 | 72 | 82 | 0.0 | 3.0 | 0.00 | 0.00 | 0.00 | 12 | 1008.1 |